DW5065 Weather Reports


Display with metric or nautical units.
time (UTC)temp
F
wind
direction
speed
MPH
gust
MPH
rain 1hr
in
rain 24hr
in
rain mn
in
humidity
%
barometer
mb
20190324110300 26 177 0.0 1.0 0.00 0.00 0.00 74 1016.5
20190324105801 26 145 0.0 1.0 0.00 0.00 0.00 76 1016.5
20190324105301 26 145 0.0 4.0 0.00 0.00 0.00 76 1016.5
20190324104801 25 145 0.0 4.0 0.00 0.00 0.00 76 1016.6
20190324104300 25 193 0.0 2.0 0.00 0.00 0.00 78 1016.6
20190324103801 26 193 1.0 2.0 0.00 0.00 0.00 76 1016.5
20190324103301 26 193 0.0 2.0 0.00 0.00 0.00 76 1016.6
20190324102801 27 171 0.0 2.0 0.00 0.00 0.00 75 1016.6
20190324102301 27 171 0.0 3.0 0.00 0.00 0.00 72 1016.5
20190324101801 27 157 0.0 6.0 0.00 0.00 0.00 72 1016.6
20190324101301 27 235 0.0 6.0 0.00 0.00 0.00 72 1016.6
20190324100801 27 232 3.0 3.0 0.00 0.00 0.00 74 1016.6
20190324100301 26 234 0.0 0.0 0.00 0.00 0.00 75 1016.6
20190324095801 26 234 0.0 0.0 0.00 0.00 0.00 73 1016.5
20190324095301 26 234 0.0 3.0 0.00 0.00 0.00 74 1016.5
20190324094801 27 234 0.0 3.0 0.00 0.00 0.00 72 1016.6
20190324094301 27 243 0.0 2.0 0.00 0.00 0.00 71 1016.5
20190324093801 28 244 1.0 3.0 0.00 0.00 0.00 68 1016.4
20190324093301 29 243 0.0 4.0 0.00 0.00 0.00 65 1016.3
20190324092801 30 196 1.0 4.0 0.00 0.00 0.00 61 1016.2
20190324092301 29 196 0.0 5.0 0.00 0.00 0.00 63 1016.5
20190324091801 28 315 1.0 5.0 0.00 0.00 0.00 67 1016.6
20190324091301 26 122 0.0 5.0 0.00 0.00 0.00 71 1016.4
20190324090801 26 122 0.0 5.0 0.00 0.00 0.00 72 1016.4
20190324090301 26 122 1.0 4.0 0.00 0.00 0.00 71 1016.4
20190324085801 26 122 0.0 2.0 0.00 0.00 0.00 71 1016.4
20190324085301 26 122 0.0 0.0 0.00 0.00 0.00 70 1016.5
20190324084801 26 122 0.0 2.0 0.00 0.00 0.00 71 1016.4
20190324084301 26 122 0.0 2.0 0.00 0.00 0.00 70 1016.5
20190324083801 26 122 0.0 3.0 0.00 0.00 0.00 70 1016.4
20190324083301 26 255 1.0 3.0 0.00 0.00 0.00 69 1016.4
20190324082801 27 255 0.0 1.0 0.00 0.00 0.00 69 1016.4
20190324082301 27 255 0.0 3.0 0.00 0.00 0.00 69 1016.4
20190324081801 27 255 1.0 3.0 0.00 0.00 0.00 68 1016.2
20190324081301 28 255 1.0 4.0 0.00 0.00 0.00 65 1016.2
20190324080801 29 129 0.0 4.0 0.00 0.00 0.00 59 1016.1
20190324080301 29 170 2.0 2.0 0.00 0.00 0.00 61 1016.1
20190324075801 29 213 0.0 2.0 0.00 0.00 0.00 60 1016.1
20190324075301 28 209 0.0 2.0 0.00 0.00 0.00 64 1016.0
20190324074802 29 279 0.0 1.0 0.00 0.00 0.00 62 1015.9
20190324074301 29 279 0.0 2.0 0.00 0.00 0.00 62 1015.9
20190324073801 29 279 0.0 3.0 0.00 0.00 0.00 61 1015.9
20190324073301 30 279 0.0 5.0 0.00 0.00 0.00 60 1015.9
20190324072801 30 318 3.0 5.0 0.00 0.00 0.00 59 1015.8
20190324072301 30 309 1.0 4.0 0.00 0.00 0.00 58 1015.8
20190324071801 30 298 1.0 4.0 0.00 0.00 0.00 60 1015.8
20190324071301 30 300 1.0 5.0 0.00 0.00 0.00 60 1015.7
20190324070801 29 300 2.0 5.0 0.00 0.00 0.00 61 1015.7
20190324070301 29 213 0.0 2.0 0.00 0.00 0.00 62 1015.8
20190324065802 29 212 0.0 3.0 0.00 0.00 0.00 59 1015.8
20190324065301 29 213 0.0 3.0 0.00 0.00 0.00 59 1015.8
20190324064801 29 246 0.0 5.0 0.00 0.00 0.00 59 1015.8
20190324064301 29 246 0.0 5.0 0.00 0.00 0.00 58 1015.8
20190324063801 29 133 2.0 5.0 0.00 0.00 0.00 58 1015.8
20190324063301 29 92 0.0 4.0 0.00 0.00 0.00 58 1015.7
20190324062801 29 83 0.0 4.0 0.00 0.00 0.00 57 1015.8
20190324062302 29 103 1.0 4.0 0.00 0.00 0.00 57 1015.8
20190324061801 29 19 0.0 2.0 0.00 0.00 0.00 57 1015.8
20190324061301 30 15 0.0 3.0 0.00 0.00 0.00 58 1015.9
20190324060801 30 38 0.0 5.0 0.00 0.00 0.00 55 1016.0
20190324060301 30 21 0.0 5.0 0.00 0.00 0.00 56 1016.1
20190324055801 29 110 0.0 4.0 0.00 0.00 0.00 58 1016.0
20190324055302 30 217 0.0 4.0 0.00 0.00 0.00 57 1015.9
20190324054801 30 345 2.0 4.0 0.00 0.00 0.00 56 1015.9
20190324054301 30 275 0.0 4.0 0.00 0.00 0.00 57 1015.9
20190324053801 30 292 0.0 4.0 0.00 0.00 0.00 58 1015.7
20190324053301 30 302 1.0 7.0 0.00 0.00 0.00 57 1015.6
20190324052801 30 328 0.0 7.0 0.00 0.00 0.00 55 1015.6
20190324052301 30 325 3.0 6.0 0.00 0.00 0.00 55 1015.6
20190324051801 30 317 2.0 6.0 0.00 0.00 0.00 56 1015.6
20190324051301 30 302 0.0 6.0 0.00 0.00 0.00 57 1015.5
20190324050801 30 269 2.0 4.0 0.00 0.00 0.00 58 1015.5
20190324050301 30 235 0.0 2.0 0.00 0.00 0.00 58 1015.5
20190324045801 30 205 0.0 3.0 0.00 0.00 0.00 57 1015.5
20190324045301 30 204 1.0 4.0 0.00 0.00 0.00 57 1015.4
20190324044801 30 295 0.0 9.0 0.00 0.00 0.00 57 1015.3
20190324044301 30 252 4.0 9.0 0.00 0.00 0.00 56 1015.3
20190324043802 30 308 0.0 3.0 0.00 0.00 0.00 58 1015.2
20190324043302 30 309 0.0 4.0 0.00 0.00 0.00 59 1015.1
20190324042801 30 149 0.0 6.0 0.00 0.00 0.00 58 1015.2
20190324042301 30 266 0.0 6.0 0.00 0.00 0.00 58 1015.1
20190324041801 30 294 0.0 4.0 0.00 0.00 0.00 57 1015.2
20190324041301 29 223 3.0 3.0 0.00 0.00 0.00 59 1015.1
20190324040802 30 216 0.0 1.0 0.00 0.00 0.00 59 1015.1
20190324040301 30 216 1.0 2.0 0.00 0.00 0.00 58 1015.0
20190324035801 30 216 1.0 4.0 0.00 0.00 0.00 58 1015.0
20190324035302 30 220 1.0 4.0 0.00 0.00 0.00 58 1015.0
20190324034802 29 272 0.0 3.0 0.00 0.00 0.00 60 1014.9
20190324034302 29 259 2.0 2.0 0.00 0.00 0.00 61 1014.9
20190324033802 29 253 0.0 3.0 0.00 0.00 0.00 61 1015.0
20190324033301 30 283 0.0 3.0 0.00 0.00 0.00 58 1015.1
20190324032801 30 283 0.0 0.0 0.00 0.00 0.00 63 1015.0
20190324032301 30 283 0.0 2.0 0.00 0.00 0.00 59 1015.0
20190324031802 30 285 0.0 4.0 0.00 0.00 0.00 59 1014.9
20190324031301 30 306 0.0 4.0 0.00 0.00 0.00 57 1014.8
20190324030801 30 302 1.0 3.0 0.00 0.00 0.00 57 1014.8
20190324030301 31 256 1.0 6.0 0.00 0.00 0.00 57 1014.7
20190324025801 31 288 1.0 6.0 0.00 0.00 0.00 57 1014.8
20190324025301 30 311 2.0 5.0 0.00 0.01 0.00 58 1014.6
20190324024801 30 289 3.0 5.0 0.00 0.01 0.00 59 1014.6
20190324024301 31 333 3.0 4.0 0.00 0.01 0.00 58 1014.6
20190324023801 30 288 2.0 4.0 0.00 0.01 0.00 58 1014.6
20190324023301 30 298 2.0 4.0 0.00 0.01 0.00 58 1014.6
20190324022801 30 327 2.0 3.0 0.00 0.02 0.00 59 1014.5
20190324022301 30 288 0.0 2.0 0.00 0.02 0.00 60 1014.5
20190324021801 31 321 0.0 6.0 0.00 0.02 0.00 59 1014.5
20190324021301 31 321 2.0 6.0 0.00 0.03 0.00 59 1014.5
20190324020801 31 226 1.0 4.0 0.00 0.03 0.00 60 1014.4
20190324020301 31 263 0.0 4.0 0.00 0.03 0.00 56 1014.4
20190324015802 31 259 1.0 7.0 0.00 0.03 0.00 57 1014.4
20190324015301 32 306 0.0 7.0 0.00 0.03 0.00 58 1014.5
20190324014801 31 236 7.0 7.0 0.00 0.03 0.00 58 1014.3
20190324014301 31 308 1.0 5.0 0.00 0.03 0.00 58 1014.2
20190324013801 32 310 5.0 5.0 0.00 0.03 0.00 59 1014.3
20190324013301 32 313 2.0 3.0 0.00 0.04 0.00 59 1014.3
20190324012802 32 302 2.0 4.0 0.00 0.04 0.00 59 1014.2
20190324012302 32 304 2.0 5.0 0.00 0.04 0.00 56 1014.1
20190324011801 32 317 1.0 9.0 0.00 0.04 0.00 58 1014.1
20190324011302 32 317 2.0 10.0 0.00 0.04 0.00 58 1014.0
20190324010801 32 317 9.0 10.0 0.00 0.04 0.00 57 1014.0
20190324010301 32 301 3.0 3.0 0.00 0.04 0.00 56 1013.9
20190324005801 32 315 0.0 4.0 0.00 0.04 0.00 54 1013.9
20190324005301 33 336 2.0 7.0 0.00 0.04 0.00 54 1013.8
20190324004801 33 310 2.0 7.0 0.00 0.04 0.00 54 1013.8
20190324004301 33 342 5.0 6.0 0.00 0.04 0.00 56 1013.7
20190324003802 33 313 2.0 4.0 0.00 0.04 0.00 55 1013.6
20190324003301 33 317 2.0 4.0 0.00 0.04 0.00 56 1013.5
20190324002802 33 303 2.0 3.0 0.00 0.04 0.00 58 1013.3
20190324002302 33 303 1.0 4.0 0.00 0.04 0.00 58 1013.1
20190324001801 33 325 3.0 5.0 0.00 0.04 0.00 57 1013.0
20190324001302 33 312 1.0 5.0 0.00 0.04 0.00 57 1013.0
20190324000802 33 348 5.0 5.0 0.00 0.04 0.00 58 1012.9
20190324000302 33 321 3.0 5.0 0.00 0.04 0.00 58 1012.8
20190323235802 33 310 4.0 5.0 0.00 0.04 0.00 57 1012.6
20190323235301 33 306 2.0 5.0 0.00 0.04 0.00 57 1012.4
20190323234802 33 346 3.0 5.0 0.00 0.04 0.00 57 1012.3
20190323234302 33 140 1.0 4.0 0.00 0.04 0.00 57 1012.2
20190323233802 34 119 2.0 3.0 0.00 0.04 0.00 57 1012.0
20190323233302 34 78 1.0 3.0 0.00 0.04 0.00 56 1011.8
20190323232802 34 321 2.0 5.0 0.00 0.04 0.00 56 1011.7
20190323232302 34 304 1.0 5.0 0.00 0.04 0.00 56 1011.6
20190323231801 34 306 3.0 9.0 0.00 0.04 0.00 57 1011.5
20190323231301 35 341 4.0 9.0 0.00 0.04 0.00 55 1011.5
20190323230801 35 320 5.0 6.0 0.00 0.04 0.00 57 1011.4
20190323230302 35 313 2.0 14.0 0.00 0.04 0.00 56 1011.5
20190323225801 35 285 3.0 14.0 0.00 0.04 0.00 56 1011.3
20190323225302 35 310 3.0 5.0 0.00 0.04 0.00 58 1011.2
20190323224801 35 335 3.0 7.0 0.00 0.04 0.00 56 1011.1
20190323224301 36 321 2.0 9.0 0.00 0.04 0.00 57 1011.1
20190323223802 36 333 7.0 9.0 0.00 0.04 0.00 57 1010.9
20190323223302 36 279 2.0 6.0 0.00 0.04 0.00 57 1010.9
20190323222801 36 328 2.0 7.0 0.00 0.04 0.00 58 1010.7
20190323222301 36 283 3.0 7.0 0.00 0.04 0.00 59 1010.6
20190323221801 36 301 2.0 4.0 0.00 0.04 0.00 61 1010.5
20190323221301 36 288 2.0 6.0 0.00 0.04 0.00 61 1010.3
20190323220802 37 271 3.0 7.0 0.00 0.04 0.00 60 1010.3
20190323220302 37 308 5.0 7.0 0.00 0.04 0.00 59 1010.4
20190323215802 37 305 3.0 7.0 0.00 0.04 0.00 59 1010.1
20190323215302 37 269 5.0 5.0 0.00 0.04 0.00 61 1009.9
20190323214802 37 300 3.0 5.0 0.00 0.04 0.00 61 1009.7
20190323214302 37 309 4.0 6.0 0.00 0.04 0.00 60 1009.7
20190323213802 37 298 4.0 6.0 0.00 0.04 0.00 59 1009.6
20190323213302 38 273 3.0 6.0 0.00 0.04 0.00 61 1009.5
20190323212802 38 265 3.0 6.0 0.00 0.04 0.00 60 1009.4
20190323212302 38 314 4.0 6.0 0.00 0.04 0.00 62 1009.4
20190323211802 38 293 4.0 7.0 0.00 0.04 0.00 60 1009.1
20190323211302 38 307 4.0 7.0 0.00 0.04 0.00 59 1009.1
20190323210802 38 346 3.0 6.0 0.00 0.04 0.00 58 1009.0
20190323210302 38 307 3.0 9.0 0.00 0.04 0.00 60 1008.9
20190323205802 38 288 3.0 9.0 0.00 0.04 0.00 60 1008.7
20190323205302 38 307 4.0 9.0 0.00 0.04 0.00 58 1008.7
20190323204802 39 307 6.0 9.0 0.00 0.04 0.00 59 1008.5
20190323204302 39 333 5.0 7.0 0.00 0.04 0.00 59 1008.5
20190323203802 39 309 4.0 9.0 0.00 0.04 0.00 61 1008.4
20190323203302 39 313 2.0 9.0 0.00 0.04 0.00 60 1008.3
20190323202802 39 299 3.0 9.0 0.00 0.04 0.00 60 1008.3
20190323202302 39 315 5.0 10.0 0.00 0.04 0.00 60 1008.1
20190323201802 39 331 7.0 10.0 0.00 0.04 0.00 59 1007.9
20190323201302 39 278 5.0 9.0 0.00 0.04 0.00 60 1007.9
20190323200802 39 309 5.0 9.0 0.00 0.04 0.00 61 1007.7
20190323200303 38 273 3.0 10.0 0.00 0.04 0.00 61 1007.7
20190323195802 39 309 6.0 10.0 0.00 0.04 0.00 61 1007.6
20190323195302 39 318 3.0 10.0 0.00 0.04 0.00 63 1007.7
20190323194802 39 289 3.0 8.0 0.00 0.04 0.00 61 1007.5
20190323194302 39 355 4.0 9.0 0.00 0.04 0.00 62 1007.4
20190323193802 39 302 3.0 9.0 0.00 0.04 0.00 62 1007.2
20190323193302 39 308 7.0 8.0 0.00 0.04 0.00 59 1007.0
20190323192802 40 325 3.0 7.0 0.00 0.04 0.00 62 1007.0
20190323192302 40 305 4.0 7.0 0.00 0.04 0.00 62 1006.9
20190323191802 40 271 2.0 7.0 0.00 0.04 0.00 60 1006.7
20190323191302 40 303 5.0 7.0 0.00 0.04 0.00 61 1006.7
20190323190802 40 254 4.0 6.0 0.00 0.04 0.00 63 1006.6
20190323190302 40 315 3.0 11.0 0.00 0.04 0.00 62 1006.5
20190323185802 40 286 3.0 11.0 0.00 0.04 0.00 62 1006.5
20190323185302 40 316 3.0 6.0 0.00 0.04 0.00 63 1006.5
20190323184802 40 304 4.0 6.0 0.00 0.04 0.00 62 1006.3
20190323184303 40 289 4.0 6.0 0.00 0.04 0.00 62 1006.2
20190323183802 40 300 3.0 8.0 0.00 0.04 0.00 63 1006.1
20190323183302 40 360 4.0 8.0 0.00 0.05 0.00 63 1006.0
20190323182802 38 350 5.0 9.0 0.00 0.05 0.00 61 1005.9
20190323182302 38 272 6.0 9.0 0.00 0.05 0.00 63 1006.0
20190323181802 38 319 4.0 11.0 0.00 0.05 0.00 63 1006.0
20190323181302 38 311 7.0 13.0 0.00 0.06 0.00 62 1005.9
20190323180803 39 5 3.0 13.0 0.00 0.07 0.00 60 1005.8
20190323180302 39 291 5.0 7.0 0.00 0.07 0.00 64 1005.8
20190323175802 39 327 3.0 6.0 0.00 0.07 0.00 61 1005.7
20190323175302 39 279 2.0 6.0 0.00 0.08 0.00 66 1005.5
20190323174802 38 311 3.0 10.0 0.00 0.08 0.00 64 1005.6
20190323174302 38 292 2.0 10.0 0.00 0.09 0.00 67 1005.6
20190323173802 37 333 3.0 8.0 0.00 0.09 0.00 65 1005.6
20190323173302 37 290 5.0 8.0 0.00 0.10 0.00 66 1005.5
20190323172802 38 290 5.0 8.0 0.00 0.10 0.00 66 1005.6
20190323172302 37 286 6.0 8.0 0.00 0.11 0.00 64 1005.5
20190323171802 37 269 4.0 8.0 0.00 0.11 0.00 65 1005.4
20190323171302 37 302 4.0 8.0 0.00 0.11 0.00 67 1005.4
20190323170802 37 290 3.0 7.0 0.00 0.11 0.00 66 1005.4
20190323170302 36 301 2.0 7.0 0.00 0.11 0.00 66 1005.2
20190323165802 36 310 5.0 8.0 0.00 0.12 0.00 67 1005.1
20190323165302 36 284 5.0 8.0 0.00 0.13 0.00 67 1005.1
20190323164802 36 290 4.0 8.0 0.00 0.13 0.00 67 1004.9
20190323164302 36 303 6.0 7.0 0.00 0.13 0.00 68 1004.7
20190323163802 36 288 4.0 8.0 0.00 0.14 0.00 68 1004.8
20190323163302 35 267 2.0 8.0 0.00 0.15 0.00 69 1004.7
20190323162802 35 292 3.0 7.0 0.00 0.15 0.00 68 1004.8
20190323162302 35 319 6.0 6.0 0.00 0.15 0.00 68 1004.8
20190323161802 36 286 4.0 7.0 0.00 0.15 0.00 70 1004.6
20190323161302 36 301 3.0 7.0 0.00 0.16 0.00 70 1004.5
20190323160802 36 314 4.0 7.0 0.00 0.17 0.00 72 1004.6
20190323160302 35 306 3.0 7.0 0.00 0.17 0.00 71 1004.5
20190323155803 34 306 3.0 6.0 0.00 0.17 0.00 73 1004.5
20190323155302 33 289 1.0 7.0 0.00 0.17 0.00 72 1004.5
20190323154803 33 316 3.0 7.0 0.00 0.18 0.00 73 1004.4
20190323154302 33 286 2.0 6.0 0.00 0.19 0.00 72 1004.4
20190323153803 33 319 3.0 6.0 0.00 0.19 0.00 72 1004.2
20190323153302 33 281 1.0 6.0 0.00 0.19 0.00 73 1004.1
20190323152802 33 294 2.0 9.0 0.00 0.20 0.00 72 1004.0
20190323152302 33 281 3.0 9.0 0.00 0.20 0.00 73 1003.8
20190323151802 33 290 5.0 8.0 0.00 0.21 0.00 74 1003.6
20190323151302 32 304 5.0 9.0 0.00 0.21 0.00 74 1003.7
20190323150802 32 315 2.0 9.0 0.00 0.22 0.00 73 1003.6
20190323150302 32 303 5.0 7.0 0.00 0.22 0.00 75 1003.5
20190323145802 32 301 2.0 8.0 0.00 0.23 0.00 75 1003.4
20190323145302 32 306 4.0 8.0 0.00 0.23 0.00 76 1003.3
20190323144803 32 333 4.0 5.0 0.00 0.23 0.00 76 1003.4
20190323144302 32 244 3.0 8.0 0.00 0.24 0.00 77 1003.3
20190323143802 31 323 3.0 8.0 0.00 0.25 0.00 76 1003.2
20190323143302 31 299 3.0 7.0 0.00 0.25 0.00 76 1002.9
20190323142802 32 269 6.0 6.0 0.00 0.25 0.00 76 1003.0
20190323142302 32 317 4.0 6.0 0.00 0.26 0.00 76 1002.8
20190323141802 32 319 4.0 6.0 0.00 0.26 0.00 76 1002.6
20190323141302 32 288 6.0 6.0 0.00 0.27 0.00 76 1002.4
20190323140802 32 296 2.0 7.0 0.00 0.27 0.00 77 1002.3
20190323140302 32 300 4.0 7.0 0.00 0.27 0.00 78 1002.2
20190323135802 32 309 3.0 6.0 0.00 0.28 0.00 76 1002.1
20190323135302 32 308 0.0 7.0 0.00 0.28 0.00 77 1001.8
20190323134802 32 296 4.0 7.0 0.00 0.29 0.00 77 1001.7
20190323134302 33 321 4.0 7.0 0.00 0.29 0.00 75 1001.7
20190323133802 33 305 2.0 6.0 0.00 0.29 0.00 75 1001.5
20190323133302 32 311 4.0 6.0 0.00 0.30 0.00 76 1001.5
20190323132802 32 313 4.0 6.0 0.00 0.30 0.00 75 1001.3
20190323132302 32 5 3.0 5.0 0.00 0.31 0.00 76 1001.2
20190323131803 32 296 3.0 6.0 0.00 0.31 0.00 76 1001.1
20190323131302 32 323 3.0 9.0 0.00 0.31 0.00 74 1000.9
20190323130802 32 273 4.0 9.0 0.00 0.31 0.00 73 1001.0
20190323130302 33 246 6.0 6.0 0.00 0.31 0.00 73 1000.9
20190323125802 33 318 0.0 4.0 0.00 0.32 0.00 72 1000.7
20190323125302 33 303 0.0 2.0 0.00 0.32 0.00 75 1000.7
20190323124803 33 303 0.0 5.0 0.00 0.32 0.00 75 1000.6
20190323124302 33 303 1.0 7.0 0.00 0.32 0.00 71 1000.5
20190323123802 33 266 2.0 7.0 0.00 0.32 0.00 68 1000.3
20190323123302 33 24 0.0 9.0 0.00 0.33 0.00 72 1000.1
20190323122802 32 71 3.0 9.0 0.00 0.33 0.00 72 999.9
20190323122302 32 5 0.0 4.0 0.00 0.33 0.00 76 999.9
20190323121802 32 198 1.0 6.0 0.00 0.33 0.00 76 999.7
20190323121302 32 133 2.0 6.0 0.00 0.33 0.00 76 999.8
20190323120802 32 313 6.0 9.0 0.00 0.33 0.00 73 999.5
20190323120302 32 311 2.0 9.0 0.00 0.33 0.00 74 999.4
20190323115802 32 330 4.0 7.0 0.00 0.33 0.00 74 999.4
20190323115302 32 318 4.0 9.0 0.00 0.33 0.00 74 999.2
20190323114802 32 314 0.0 13.0 0.00 0.33 0.00 74 999.2
20190323114302 32 315 5.0 13.0 0.00 0.33 0.00 73 999.1
20190323113802 32 317 8.0 8.0 0.00 0.33 0.00 73 999.0
20190323113303 32 327 6.0 10.0 0.00 0.33 0.00 74 998.9
20190323112802 32 334 2.0 10.0 0.00 0.34 0.00 74 998.7
20190323112303 32 298 0.0 5.0 0.00 0.34 0.00 75 998.5
20190323111803 32 309 0.0 10.0 0.00 0.34 0.00 75 998.3
20190323111302 32 331 3.0 11.0 0.00 0.34 0.00 73 998.0
20190323110803 32 148 7.0 11.0 0.00 0.34 0.00 72 997.8